Regional Weather Roundup
Issued by NWS Little Rock, AR

Home | Current Version | Previous Version | Graphics & Text | Print | Product List | Glossary On
Versions: 1 2 3 4 5 6 7 8 9 10 11 12 13 14 15 16 17 18 19 20 21 22 23 24 25 26 27 28 29 30 31 32 33 34 35 36 37 38 39 40 41 42 43 44 45 46 47 48 49 50
000
ASUS44 KLZK 051605
RWRLZK

WEATHER ROUNDUP FOR ARKANSAS
NATIONAL WEATHER SERVICE LITTLE ROCK AR
1000 AM CST FRI FEB 05 2016

NOTE: "FAIR" INDICATES FEW OR NO CLOUDS BELOW 12,000 FEET WITH NO
SIGNIFICANT WEATHER AND/OR OBSTRUCTIONS TO VISIBILITY.

ARZ001-003-010-029-051700-
NORTHWEST ARKANSAS

CITY           SKY/WX    TMP DP  RH WIND       PRES   REMARKS
FAYETTEVILLE   CLOUDY    41  23  48 SW8       30.44R
FORT SMITH     CLOUDY    37  21  52 NE6       30.48S
HARRISON       CLOUDY    47  17  30 W9        30.42R
BENTONVILLE    CLOUDY    39  19  45 SW7       30.44S
ROGERS         CLOUDY    41  18  39 SW12      30.43R
SILOAM SPGS    CLOUDY    39  18  41 SW8       30.44R
HIGHFILL       CLOUDY    40  21  46 SW9       30.43R
SPRINGDALE     PTSUNNY   41  18  38 SW8       30.45R
$$

ARZ004-005-016-051700-
NORTH CENTRAL ARKANSAS

CITY           SKY/WX    TMP DP  RH WIND       PRES   REMARKS
BATESVILLE     SUNNY     45  25  45 CALM      30.47S
FLIPPIN        SUNNY     36  23  60 CALM      30.42S
MTN HOME       SUNNY     39  19  44 CALM      30.43R
$$

ARZ040-041-051700-
WEST CENTRAL ARKANSAS

CITY           SKY/WX    TMP DP  RH WIND       PRES   REMARKS
MENA           CLOUDY    46  21  36 SW6       30.47S
MOUNT IDA      CLOUDY    38  22  52 CALM      30.46S
$$

ARZ009-017-025-026-028-051700-
NORTHEAST ARKANSAS

CITY           SKY/WX    TMP DP  RH WIND       PRES   REMARKS
CORNING        FAIR      37  27  65 SW6       30.47F
JONESBORO      CLOUDY    44  25  47 W8        30.47S
NEWPORT        CLOUDY    46  26  46 W7        30.48S
BLYTHEVILLE    CLOUDY    43  31  62 SW7       30.48S
$$

ARZ022-023-033-042-044-051700-
CENTRAL ARKANSAS

CITY           SKY/WX    TMP DP  RH WIND       PRES   REMARKS
LITTLE ROCK    CLOUDY    47  20  34 W6        30.49S
N LITTLE ROCK  PTSUNNY   47  21  34 SW7       30.49S
JACKSONVILLE   CLOUDY    40  25  54 MISG      30.48R
SEARCY         CLOUDY    41  28  60 CALM      30.50S
HOT SPRINGS    SUNNY     40  26  57 NW5       30.50R
RUSSELLVILLE   CLOUDY    36  25  64 CALM      30.48R
CLINTON        FAIR      32  23  69 CALM      30.48F
$$

ARZ036-051700-
EAST ARKANSAS

CITY           SKY/WX    TMP DP  RH WIND       PRES   REMARKS
WEST MEMPHIS   CLOUDY    42  31  64 CALM      30.49S
$$

ARZ050-053-066-070-073-051700-
SOUTHWEST ARKANSAS

CITY           SKY/WX    TMP DP  RH WIND       PRES   REMARKS
ARKADELPHIA    FAIR      38  31  76 CALM      30.53R
CAMDEN         SUNNY     41  25  52 S3        30.52R
TEXARKANA      SUNNY     48  20  32 S6        30.50S
EL DORADO      SUNNY     45  23  42 VRB5      30.51R
DE QUEEN       CLOUDY    41  31  67 CALM      30.50R
$$

ARZ056-057-069-051700-
SOUTHEAST ARKANSAS

CITY           SKY/WX    TMP DP  RH WIND       PRES   REMARKS
PINE BLUFF     SUNNY     43  23  45 SW5       30.51S
STUTTGART      SUNNY     45  28  53 SW7       30.51S
MONTICELLO     SUNNY     48  22  35 SW5       30.51R

$$





USA.gov is the U.S. government's official web portal to all federal, state and local government web resources and services.